TimeCST,TemperatureF,Dew PointF,Humidity,Sea Level PressureIn,VisibilityMPH,Wind Direction,Wind SpeedMPH,Gust SpeedMPH,PrecipitationIn,Events,Conditions,WindDirDegrees,DateUTC
12:10 AM,39.2,26.6,61,30.08,10.0,SSE,3.5,-,N/A,,Clear,150,2000-01-19 06:10:00
12:31 AM,39.2,26.6,61,30.06,10.0,SE,4.6,-,N/A,,Clear,130,2000-01-19 06:31:00
12:51 AM,39.2,26.6,61,30.03,10.0,SE,8.1,-,N/A,,Scattered Clouds,140,2000-01-19 06:51:00
1:09 AM,39.2,28.4,65,30.02,10.0,SSE,5.8,-,N/A,,Scattered Clouds,160,2000-01-19 07:09:00
1:32 AM,39.2,28.4,65,30.00,10.0,SE,8.1,-,N/A,,Scattered Clouds,130,2000-01-19 07:32:00
2:12 AM,37.4,30.2,75,29.98,10.0,SSE,9.2,-,N/A,,Scattered Clouds,150,2000-01-19 08:12:00
2:54 AM,39.2,30.2,70,29.94,10.0,SSE,11.5,-,N/A,,Clear,150,2000-01-19 08:54:00
3:12 AM,39.2,30.2,70,29.93,10.0,SSE,11.5,17.3,N/A,,Mostly Cloudy,160,2000-01-19 09:12:00
3:31 AM,39.2,30.2,70,29.91,10.0,SSE,11.5,-,N/A,,Scattered Clouds,160,2000-01-19 09:31:00
3:49 AM,39.2,30.2,70,29.88,10.0,SSE,15.0,-,N/A,,Scattered Clouds,150,2000-01-19 09:49:00
4:10 AM,39.2,30.2,70,29.87,10.0,SSE,12.7,-,N/A,,Mostly Cloudy,160,2000-01-19 10:10:00
4:49 AM,39.2,30.2,70,29.84,10.0,SSE,13.8,-,N/A,,Mostly Cloudy,160,2000-01-19 10:49:00
5:30 AM,39.2,28.4,65,29.81,10.0,South,13.8,-,N/A,,Scattered Clouds,170,2000-01-19 11:30:00
5:50 AM,39.2,26.6,61,29.81,10.0,South,16.1,-,N/A,,Mostly Cloudy,170,2000-01-19 11:50:00
6:33 AM,39.2,26.6,61,29.78,10.0,South,13.8,19.6,N/A,,Mostly Cloudy,170,2000-01-19 12:33:00
6:49 AM,39.2,26.6,61,29.76,10.0,South,15.0,19.6,N/A,,Scattered Clouds,170,2000-01-19 12:49:00
7:11 AM,39.2,26.6,61,29.76,10.0,South,11.5,18.4,N/A,,Mostly Cloudy,180,2000-01-19 13:11:00
7:32 AM,39.2,26.6,61,29.74,10.0,South,17.3,21.9,N/A,,Mostly Cloudy,180,2000-01-19 13:32:00
7:50 AM,39.2,28.4,65,29.73,10.0,South,15.0,20.7,N/A,,Scattered Clouds,180,2000-01-19 13:50:00
8:30 AM,39.2,30.2,70,29.73,10.0,South,13.8,-,N/A,,Scattered Clouds,190,2000-01-19 14:30:00
8:50 AM,37.4,30.2,75,29.73,10.0,SSW,13.8,-,N/A,,Scattered Clouds,200,2000-01-19 14:50:00
9:31 AM,37.4,30.2,75,29.75,10.0,SW,10.4,-,N/A,,Scattered Clouds,220,2000-01-19 15:31:00
10:11 AM,39.2,32.0,75,29.75,10.0,WSW,17.3,-,N/A,,Clear,240,2000-01-19 16:11:00
10:30 AM,42.8,30.2,61,29.76,10.0,West,13.8,-,N/A,,Clear,270,2000-01-19 16:30:00
11:30 AM,48.2,32.0,54,29.79,10.0,WNW,29.9,33.4,N/A,,Clear,300,2000-01-19 17:30:00
11:51 AM,50.0,33.8,54,29.78,10.0,NW,24.2,-,N/A,,Clear,310,2000-01-19 17:51:00
12:12 PM,51.8,33.8,50,29.78,10.0,NW,24.2,32.2,N/A,,Clear,310,2000-01-19 18:12:00
12:30 PM,53.6,33.8,47,29.77,10.0,NW,31.1,36.8,N/A,,Clear,310,2000-01-19 18:30:00
12:55 PM,53.6,35.6,51,29.79,10.0,NW,33.4,41.4,N/A,,Clear,320,2000-01-19 18:55:00
1:11 PM,53.6,33.8,47,29.80,10.0,NW,36.8,43.7,N/A,,Scattered Clouds,310,2000-01-19 19:11:00
1:30 PM,51.8,33.8,50,29.82,10.0,NW,36.8,50.6,N/A,,Scattered Clouds,320,2000-01-19 19:30:00
2:10 PM,39.2,26.6,61,29.89,10.0,NW,43.7,54.1,N/A,,Mostly Cloudy,310,2000-01-19 20:10:00
2:30 PM,39.2,26.6,61,29.91,10.0,NNW,38.0,50.6,N/A,,Mostly Cloudy,330,2000-01-19 20:30:00
3:30 PM,33.8,19.4,56,29.99,10.0,NNW,33.4,44.9,N/A,,Clear,330,2000-01-19 21:30:00
3:54 PM,30.2,17.6,60,30.02,10.0,NNW,33.4,43.7,N/A,,Scattered Clouds,330,2000-01-19 21:54:00
4:11 PM,30.2,15.8,55,30.04,10.0,NNW,35.7,47.2,N/A,,Scattered Clouds,330,2000-01-19 22:11:00
4:30 PM,28.4,15.8,59,30.07,10.0,NNW,33.4,44.9,N/A,,Scattered Clouds,340,2000-01-19 22:30:00
5:12 PM,26.6,15.8,64,30.10,10.0,NNW,31.1,40.3,N/A,,Overcast,330,2000-01-19 23:12:00
5:33 PM,24.8,12.2,59,30.11,10.0,NNW,25.3,41.4,N/A,,Scattered Clouds,330,2000-01-19 23:33:00
5:51 PM,24.8,12.2,59,30.14,10.0,NNW,32.2,38.0,N/A,,Clear,330,2000-01-19 23:51:00
6:11 PM,24.8,12.2,59,30.16,10.0,NNW,25.3,35.7,N/A,,Clear,330,2000-01-20 00:11:00
6:32 PM,23.0,12.2,63,30.17,10.0,NNW,24.2,35.7,N/A,,Clear,330,2000-01-20 00:32:00
6:50 PM,21.2,10.4,63,30.20,10.0,NNW,24.2,29.9,N/A,,Clear,330,2000-01-20 00:50:00
7:13 PM,21.2,12.2,68,30.20,10.0,NNW,24.2,28.8,N/A,,Scattered Clouds,340,2000-01-20 01:13:00
7:30 PM,21.2,10.4,63,30.22,10.0,NNW,18.4,-,N/A,,Clear,330,2000-01-20 01:30:00
8:11 PM,19.4,10.4,68,30.23,10.0,NNW,16.1,21.9,N/A,,Clear,340,2000-01-20 02:11:00
8:31 PM,19.4,10.4,68,30.24,10.0,NNW,18.4,-,N/A,,Clear,330,2000-01-20 02:31:00
8:50 PM,19.4,10.4,68,30.26,10.0,NNW,13.8,-,N/A,,Clear,330,2000-01-20 02:50:00
9:12 PM,17.6,10.4,73,30.26,10.0,NNW,16.1,-,N/A,,Clear,330,2000-01-20 03:12:00
9:30 PM,17.6,10.4,73,30.27,10.0,NNW,15.0,-,N/A,,Clear,340,2000-01-20 03:30:00
9:51 PM,17.6,8.6,68,30.27,10.0,NNW,13.8,-,N/A,,Clear,340,2000-01-20 03:51:00
10:10 PM,17.6,8.6,68,30.28,10.0,NNW,16.1,-,N/A,,Clear,340,2000-01-20 04:10:00
10:31 PM,15.8,8.6,73,30.29,10.0,NNW,12.7,-,N/A,,Clear,340,2000-01-20 04:31:00
10:53 PM,15.8,8.6,73,30.30,10.0,NNW,12.7,-,N/A,,Clear,340,2000-01-20 04:53:00
11:11 PM,15.8,6.8,68,30.30,10.0,NW,5.8,-,N/A,,Clear,320,2000-01-20 05:11:00
11:30 PM,15.8,8.6,73,30.31,10.0,NNW,9.2,-,N/A,,Clear,330,2000-01-20 05:30:00
11:51 PM,15.8,8.6,73,30.31,10.0,NW,8.1,-,N/A,,Clear,320,2000-01-20 05:51:00